Regional Weather Roundup
Issued by NWS

Home | Current Version | Previous Version | Text Only | Print | Product List | Glossary Off
Versions: 1 2 3 4 5 6 7 8 9 10 11 12 13 14 15 16 17 18 19 20 21 22 23 24 25 26 27 28 29 30 31 32 33 34 35 36 37 38 39 40 41 42 43 44 45 46 47 48 49 50

498
ASUS43 KLOT 302103
RWRIL

ILLINOIS REGIONAL WEATHER ROUNDUP
NATIONAL WEATHER SERVICE CHICAGO/ROMEOVILLE IL
400 PM CDT SUN APR 30 2017

NOTE: "FAIR" INDICATES FEW OR NO CLOUDS BELOW 12,000 FEET WITH NO
SIGNIFICANT WEATHER AND/OR OBSTRUCTIONS TO VISIBILITY.

* THESE STATIONS ARE NOT UNDER NWS QUALITY CONTROL. THEY ALSO MAY NOT
  REPORT WEATHER SUCH AS PRECIPITATION OR FOG.

ILZ001-002-007-009-015-016-024-302200-
NORTHWEST ILLINOIS

CITY           SKY/WX    TMP DP  RH WIND       PRES   REMARKS
MOLINE         CLOUDY    48  45  89 NE20      29.66F FOG
STERLING*      CLOUDY    48  46  93 E20G28    29.71F
$$

ILZ003-004-008-010-011-017-018-302200-
NORTH CENTRAL ILLINOIS

CITY           SKY/WX    TMP DP  RH WIND       PRES   REMARKS
ROCKFORD       CLOUDY    48  44  86 E12G21    29.79F
FREEPORT*      CLOUDY    45  44  94 NE16G24   29.76F
ROCHELLE*      CLOUDY    47  45  94 E18       29.74F
DE KALB*       CLOUDY    47  45  93 NE16G24   29.75F
$$

ILZ005-006-012>014-019>023-302200-
NORTHEAST ILLINOIS

CITY           SKY/WX    TMP DP  RH WIND       PRES   REMARKS
CHICAGO-OHARE  DRIZZLE   45  42  89 NE18      29.78F
CHICAGO-MIDWAY CLOUDY    45  44  97 NE17G24   29.78F FOG
AURORA         CLOUDY    48  46  93 NE18      29.74F
LANSING*       CLOUDY    46  46 100 N7        29.78F FOG
WAUKEGAN       CLOUDY    42  42 100 NE16G23   29.80F
DUPAGE AIRPORT CLOUDY    46  45  96 NE20G26   29.76F
WHEELING       CLOUDY    43  43 100 NE16G22   29.80F FOG
NORTHERLY ISL    N/A     43  42  97 N15         N/A
$$

LMZ740>746-302200-
SOUTHERN LAKE MICHIGAN

STATION/POSITION SKY/WX   TEMP    WIND        PRES    VSBY  WAVE
                          AIR SEA DIR/SP/G                  HT/PER
                          (F)     (DEG/KT/KT) (MB)    (MI)  (FT/S)
SOUTHERN BUOY              41 41   30/ 17/ 19 1010.6          4/ 5
HARRISON CRIB              43      10/ 17/ 19   N/A
BURNHAM HARBOR             43      10/ 13/ 16   N/A
CALUMET HARBOR             43     350/ 12/ 16 1008.5F
BURNS HARBOR               45      30/  9/ 12 1009.1F
MICHIGAN CITY              45      10/  6/  7   N/A
MICHIGAN CITY 6N           44 49                N/A           3/ 5
ST. JOSEPH                 45 46   30/  8/ 10 1009.2F         2/ 5
$$

ILZ025>027-034>036-040-047-049-050-058-095>099-302200-
WEST-CENTRAL ILLINOIS

CITY           SKY/WX    TMP DP  RH WIND       PRES   REMARKS
QUINCY         CLOUDY    56  55  97 E16       29.51F
GALESBURG*     CLOUDY    49  49  99 NE13G25   29.62F
MACOMB*        CLOUDY    51  50  99 E16       29.62F
JACKSONVILLE*  CLOUDY    65  63  91 E13G20    29.57F
PITTSFIELD*    CLOUDY    65  64  95 E16       29.54F
$$

ILZ028>032-037-038-041>044-048-051>054-059>061-302200-
CENTRAL ILLINOIS

CITY           SKY/WX    TMP DP  RH WIND       PRES   REMARKS
BLOOMINGTON    LGT RAIN  57  57 100 NE13      29.68F FOG
DECATUR        CLOUDY    66  66 100 SE16      29.64F
PEORIA         LGT RAIN  51  51 100 NE14      29.64F
SPRINGFIELD    CLOUDY    68  64  87 SE16      29.60F
TAYLORVILLE    NOT AVBL
$$

ILZ033-039-045-046-055>057-062-063-302200-
EAST-CENTRAL ILLINOIS

CITY           SKY/WX    TMP DP  RH WIND       PRES   REMARKS
CHAMPAIGN      LGT RAIN  66  64  93 SE14      29.69F
MATTOON        CLOUDY    67  65  93 SE12      29.66F
$$

ILZ079-100>102-302200-
SOUTHWEST ILLINOIS

CITY           SKY/WX    TMP DP  RH WIND       PRES   REMARKS
ALTON          CLOUDY    68  64  88 SE16      29.57F
BELLEVILLE     PTSUNNY   70  66  88 E16G22    29.56F
CAHOKIA*       CLOUDY    71  65  81 SE13      29.55F
$$

ILZ064>066-069>071-074>076-080>082-084>086-088>090-092>094-302200-
SOUTH-CENTRAL ILLINOIS

CITY           SKY/WX    TMP DP  RH WIND       PRES   REMARKS
CARBONDALE     CLOUDY    71  68  90 S18G24    29.63F
CAIRO*         CLOUDY    70  68  93 S14G21    29.65F
EFFINGHAM*     CLOUDY    67  67  99 E10       29.65F
MARION         CLOUDY    72  72 100 S12       29.65F
MT. VERNON     CLOUDY    69  67  93 SE9       29.66F
CENTRALIA*     CLOUDY    69  67  95 SE10      29.63S
SALEM*         CLOUDY    68  65  90 SE6       29.64F
$$

ILZ067-068-072-073-078-083-087-091-302200-
SOUTHEAST ILLINOIS

CITY           SKY/WX    TMP DP  RH WIND       PRES   REMARKS
LAWRENCEVILLE  LGT RAIN  71  68  90 S23G30    29.69F
FLORA*         RAIN     N/A N/A N/A SE8       29.65F
FAIRFIELD*     CLOUDY    69  68  97 S9        29.66F
HARRISBURG*    CLOUDY    72  69  90 S17G23    29.68R
ROBINSON*      LGT RAIN  67  66  95 SE6       29.71F
CARMI*         CLOUDY    70  69  95 SE17      29.65F
$$

ABBREVIATIONS USED IN REMARKS
   TC - TEMPERATURE IN CELSIUS
  WCI - WIND CHILL INDEX
   HX - HEAT INDEX
  VSB - VISIBILITY
$$





USA.gov is the U.S. government's official web portal to all federal, state and local government web resources and services.